EW4650 Weather Reports


time (UTC)temp
F
wind
direction
speed
knots
gust
knots
rain 1hr
in
rain 24hr
in
rain mn
in
humidity
%
barometer
mb
20260510095009 67 192 2.6 7.0 0.00 0.00 0.00 94 1008.8
20260510094518 67 204 3.5 7.0 0.00 0.00 0.00 94 1008.8
20260510094006 67 184 3.5 7.0 0.00 0.00 0.00 94 1008.8
20260510093506 67 173 3.5 6.1 0.00 0.00 0.00 94 1008.8
20260510093009 67 195 2.6 7.0 0.00 0.00 0.00 93 1008.7
20260510092505 67 191 3.5 6.1 0.00 0.00 0.00 93 1008.7
20260510092006 67 191 3.5 6.1 0.00 0.00 0.00 93 1008.8
20260510091507 68 186 2.6 5.2 0.00 0.00 0.00 93 1008.8
20260510091004 68 195 2.6 5.2 0.00 0.00 0.00 92 1008.8
20260510090503 68 195 2.6 5.2 0.00 0.00 0.00 92 1008.8
20260510090004 68 188 2.6 6.1 0.00 0.00 0.00 92 1008.8
20260510085502 68 191 2.6 6.1 0.00 0.00 0.00 92 1008.7
20260510085004 68 209 3.5 6.1 0.00 0.00 0.00 92 1008.7
20260510084504 68 215 3.5 6.1 0.00 0.00 0.00 91 1008.6
20260510084001 68 190 4.3 6.1 0.00 0.00 0.00 91 1008.7
20260510083501 68 171 3.5 6.1 0.00 0.00 0.00 91 1008.6
20260510083107 68 175 4.3 7.0 0.00 0.00 0.00 91 1008.7
20260510082600 68 195 4.3 7.0 0.00 0.00 0.00 90 1008.6
20260510082059 69 186 4.3 7.0 0.00 0.00 0.00 90 1008.7
20260510081558 69 209 4.3 7.8 0.00 0.00 0.00 90 1008.7
20260510081057 69 195 4.3 8.7 0.00 0.00 0.00 89 1008.7
20260510080556 69 188 4.3 8.7 0.00 0.00 0.00 89 1008.7
20260510075555 69 180 4.3 7.0 0.00 0.00 0.00 88 1008.7
20260510075057 69 181 3.5 7.0 0.00 0.00 0.00 88 1008.7
20260510074554 69 173 3.5 7.0 0.00 0.00 0.00 87 1008.6
20260510074052 70 198 4.3 7.8 0.00 0.00 0.00 87 1008.5
20260510073551 70 176 3.5 7.8 0.00 0.00 0.00 86 1008.6
20260510073056 70 199 3.5 9.6 0.00 0.00 0.00 86 1008.5
20260510072550 70 173 4.3 9.6 0.00 0.00 0.00 86 1008.6
20260510072049 70 188 6.1 9.6 0.00 0.00 0.00 86 1008.6
20260510071550 70 181 5.2 8.7 0.00 0.00 0.00 86 1008.7
20260510071048 70 200 6.1 8.7 0.00 0.00 0.00 85 1008.6
20260510070548 70 183 6.1 7.8 0.00 0.00 0.00 85 1008.7
20260510070047 71 184 4.3 8.7 0.00 0.00 0.00 84 1008.8
20260510065549 71 185 5.2 12.2 0.00 0.00 0.00 84 1008.9
20260510065044 71 201 5.2 12.2 0.00 0.00 0.00 84 1009.0
20260510064546 71 202 5.2 10.4 0.00 0.00 0.00 83 1009.0
20260510064042 71 197 5.2 9.6 0.00 0.00 0.00 82 1009.0
20260510063542 72 205 5.2 8.7 0.00 0.00 0.00 82 1009.0
20260510063041 72 207 4.3 11.3 0.00 0.00 0.00 82 1009.0
20260510062542 72 176 6.1 11.3 0.00 0.00 0.00 81 1008.9
20260510062038 72 194 5.2 9.6 0.00 0.00 0.00 81 1008.9
20260510061537 72 198 7.0 11.3 0.00 0.00 0.00 81 1009.1
20260510061036 72 195 7.0 11.3 0.00 0.00 0.00 81 1009.0
20260510060536 72 174 6.1 9.6 0.00 0.00 0.00 80 1009.0
20260510060041 73 195 5.2 8.7 0.00 0.00 0.00 80 1009.0
20260510055532 73 213 3.5 7.8 0.00 0.00 0.00 79 1009.0
20260510055032 73 195 3.5 7.0 0.00 0.00 0.00 79 1008.9
20260510054538 73 192 4.3 10.4 0.00 0.00 0.00 79 1008.9
20260510054033 73 180 5.2 10.4 0.00 0.00 0.00 79 1008.9
20260510053530 73 152 7.0 12.2 0.00 0.00 0.00 79 1008.9
20260510053030 73 171 7.0 12.2 0.00 0.00 0.00 79 1008.8
20260510052529 74 148 4.3 7.0 0.00 0.00 0.00 79 1008.8
20260510052029 74 138 3.5 7.8 0.00 0.00 0.00 78 1008.8
20260510051529 74 135 4.3 9.6 0.00 0.00 0.00 78 1008.8
20260510051028 74 166 6.1 9.6 0.00 0.00 0.00 79 1008.7
20260510050526 73 149 4.3 9.6 0.00 0.00 0.00 79 1008.7
20260510050031 73 164 6.1 9.6 0.00 0.00 0.00 79 1008.6
20260510045528 73 192 5.2 8.7 0.00 0.00 0.00 79 1008.6
20260510045026 73 159 5.2 9.6 0.00 0.00 0.00 80 1008.7
20260510044526 73 159 5.2 9.6 0.00 0.00 0.00 80 1008.7
20260510044025 73 164 4.3 7.8 0.00 0.00 0.00 81 1008.6
20260510043625 73 180 4.3 7.0 0.00 0.00 0.00 81 1008.7
20260510043027 73 180 3.5 5.2 0.00 0.00 0.00 80 1008.7
20260510042524 73 186 3.5 5.2 0.00 0.00 0.00 80 1008.6
20260510042024 73 186 3.5 6.1 0.00 0.00 0.00 80 1008.5
20260510041524 73 172 4.3 6.1 0.00 0.00 0.00 80 1008.5
20260510041024 73 177 3.5 6.1 0.00 0.00 0.00 79 1008.5
20260510040524 73 187 3.5 5.2 0.00 0.00 0.00 79 1008.4
20260510040026 73 185 3.5 5.2 0.00 0.00 0.00 79 1008.4
20260510035523 74 188 3.5 7.0 0.00 0.00 0.00 78 1008.4
20260510035023 74 173 4.3 7.0 0.00 0.00 0.00 78 1008.3
20260510034524 74 193 4.3 7.0 0.00 0.00 0.00 77 1008.3
20260510034022 74 192 3.5 5.2 0.00 0.00 0.00 77 1008.3
20260510033524 74 189 2.6 5.2 0.00 0.00 0.00 77 1008.2
20260510033022 74 196 3.5 5.2 0.00 0.00 0.00 76 1008.2
20260510032523 75 185 3.5 5.2 0.00 0.00 0.00 75 1008.2
20260510032024 75 200 3.5 6.1 0.00 0.00 0.00 74 1008.1
20260510031522 75 181 3.5 6.1 0.00 0.00 0.00 74 1008.1
20260510031021 76 181 3.5 6.1 0.00 0.00 0.00 73 1008.1
20260510030522 76 176 2.6 6.1 0.00 0.00 0.00 72 1008.0
20260510030024 76 192 2.6 6.1 0.00 0.00 0.00 72 1008.0
20260510025522 77 193 3.5 7.8 0.00 0.00 0.00 71 1008.0
20260510025022 77 169 4.3 7.8 0.00 0.00 0.00 71 1008.0
20260510024622 77 140 4.3 7.8 0.00 0.00 0.00 71 1007.9
20260510024020 77 172 5.2 7.8 0.00 0.00 0.00 70 1007.8
20260510023520 77 168 5.2 7.8 0.00 0.00 0.00 70 1007.7
20260510023020 77 176 4.3 7.0 0.00 0.00 0.00 69 1007.6
20260510022521 77 163 4.3 6.1 0.00 0.00 0.00 69 1007.6
20260510022020 77 176 3.5 6.1 0.00 0.00 0.00 68 1007.4
20260510021520 77 175 3.5 5.2 0.00 0.00 0.00 68 1007.5
20260510021019 77 182 3.5 5.2 0.00 0.00 0.00 68 1007.2
20260510020522 78 196 2.6 4.3 0.00 0.00 0.00 68 1007.1
20260510020019 78 198 2.6 5.2 0.00 0.00 0.00 68 1007.1
20260510015518 78 194 3.5 5.2 0.00 0.00 0.00 68 1007.1
20260510015018 78 190 2.6 5.2 0.00 0.00 0.00 67 1006.9
20260510014520 79 181 2.6 4.3 0.00 0.00 0.00 66 1007.0
20260510014018 79 194 2.6 4.3 0.00 0.00 0.00 66 1006.9
20260510013518 80 185 2.6 5.2 0.00 0.00 0.00 65 1006.7
20260510013017 80 184 3.5 6.1 0.00 0.00 0.00 65 1006.6
20260510012517 81 195 3.5 6.1 0.00 0.00 0.00 63 1006.6
20260510012017 81 191 3.5 6.1 0.00 0.00 0.00 63 1006.5
20260510011517 82 171 2.6 6.1 0.00 0.00 0.00 62 1006.6
20260510011016 82 181 3.5 6.1 0.00 0.00 0.00 61 1006.4
20260510010517 83 190 3.5 5.2 0.00 0.00 0.00 60 1006.4
20260510010017 83 184 2.6 5.2 0.00 0.00 0.00 59 1006.4
20260510005517 84 184 0.9 7.8 0.00 0.00 0.00 59 1006.3
20260510005016 84 187 3.5 7.0 0.00 0.00 0.00 58 1006.3
20260510004516 85 193 3.5 7.0 0.00 0.00 0.00 57 1006.2
20260510004015 85 198 4.3 7.8 0.00 0.00 0.00 56 1006.2
20260510003515 86 211 1.7 5.2 0.00 0.00 0.00 56 1006.3
20260510003023 86 192 2.6 4.3 0.00 0.00 0.00 54 1006.3
20260510002514 87 205 0.9 5.2 0.00 0.00 0.00 53 1006.2
20260510002015 87 210 2.6 5.2 0.00 0.00 0.00 53 1006.2
20260510001516 87 195 2.6 5.2 0.00 0.00 0.00 53 1006.2
20260510001014 88 206 3.5 5.2 0.00 0.00 0.00 52 1006.2
20260510000514 88 232 2.6 5.2 0.00 0.00 0.00 52 1006.1
20260510000014 88 182 1.7 6.1 0.00 0.00 0.00 53 1006.1
20260509235513 88 136 1.7 7.0 0.00 0.00 0.00 52 1006.1
20260509235013 88 165 3.5 7.8 0.00 0.00 0.00 51 1006.2
20260509234524 88 186 3.5 7.8 0.00 0.00 0.00 53 1006.1
20260509234013 88 148 2.6 6.1 0.00 0.00 0.00 52 1006.1
20260509233512 89 210 1.7 5.2 0.00 0.00 0.00 51 1006.1
20260509233012 89 199 1.7 4.3 0.00 0.00 0.00 52 1006.0
20260509232512 88 222 0.0 1.7 0.00 0.00 0.00 49 1006.0
20260509232014 88 325 0.0 4.3 0.00 0.00 0.00 50 1006.0
20260509231514 87 9 0.9 8.7 0.00 0.00 0.00 49 1006.1
20260509231012 87 9 1.7 8.7 0.00 0.00 0.00 50 1006.1
20260509230511 88 331 1.7 7.0 0.00 0.00 0.00 47 1006.2
20260509230011 89 265 3.5 7.8 0.00 0.00 0.00 49 1006.2
20260509225511 89 246 4.3 9.6 0.00 0.00 0.00 49 1006.1
20260509225010 89 248 2.6 8.7 0.00 0.00 0.00 50 1006.1
20260509224510 89 227 4.3 8.7 0.00 0.00 0.00 50 1006.1
20260509224009 89 296 3.5 7.0 0.00 0.00 0.00 50 1006.1
20260509223510 89 213 4.3 6.1 0.00 0.00 0.00 49 1006.1
20260509223009 89 175 4.3 8.7 0.00 0.00 0.00 51 1006.1
20260509222508 89 240 1.7 8.7 0.00 0.00 0.00 50 1006.1
20260509222008 89 209 6.1 8.7 0.00 0.00 0.00 51 1006.1
20260509221508 89 202 4.3 6.1 0.00 0.00 0.00 50 1006.1
20260509221007 89 163 1.7 8.7 0.00 0.00 0.00 53 1006.2
20260509220508 89 159 3.5 8.7 0.00 0.00 0.00 53 1006.3
20260509220018 89 232 3.5 7.0 0.00 0.00 0.00 54 1006.2
20260509215506 88 248 2.6 6.1 0.00 0.00 0.00 54 1006.3
20260509215005 88 157 1.7 7.0 0.00 0.00 0.00 53 1006.3
20260509214504 88 163 2.6 4.3 0.00 0.00 0.00 56 1006.4
20260509214004 87 175 1.7 10.4 0.00 0.00 0.00 56 1006.5
20260509213501 87 177 5.2 10.4 0.00 0.00 0.00 54 1006.5
20260509213141 88 121 4.3 10.4 0.00 0.00 0.00 54 1006.5
20260509212601 89 177 6.1 10.4 0.00 0.00 0.00 55 1006.7
20260509212101 88 175 7.0 10.4 0.00 0.00 0.00 55 1006.7
20260509211558 88 180 4.3 8.7 0.00 0.00 0.00 55 1006.8
20260509211057 88 227 3.5 7.0 0.00 0.00 0.00 54 1006.8
20260509210557 88 229 1.7 6.1 0.00 0.00 0.00 55 1006.9
20260509210105 87 207 2.6 7.8 0.00 0.00 0.00 56 1007.1
20260509205556 87 213 4.3 7.8 0.00 0.00 0.00 56 1007.1
20260509205053 87 165 3.5 7.0 0.00 0.00 0.00 58 1007.2
20260509204555 86 198 4.3 7.8 0.00 0.00 0.00 58 1007.3
20260509204052 85 210 5.2 7.8 0.00 0.00 0.00 59 1007.4
20260509203551 86 244 0.0 7.8 0.00 0.00 0.00 56 1007.5
20260509203050 87 265 3.5 5.2 0.00 0.00 0.00 56 1007.5
20260509202549 87 222 0.9 9.6 0.00 0.00 0.00 55 1007.7
20260509202049 86 225 7.0 9.6 0.00 0.00 0.00 58 1007.7
20260509201548 86 200 1.7 7.0 0.00 0.00 0.00 58 1007.7
20260509201047 85 209 3.5 7.0 0.00 0.00 0.00 59 1007.9
20260509200546 85 127 0.9 9.6 0.00 0.00 0.00 59 1007.9
20260509200046 84 225 6.1 9.6 0.00 0.00 0.00 61 1008.1
20260509195546 84 231 4.3 13.0 0.00 0.00 0.00 61 1008.1
20260509195048 85 229 8.7 13.0 0.00 0.00 0.00 59 1008.1
20260509194544 86 249 3.5 12.2 0.00 0.00 0.00 58 1008.3
20260509194044 86 242 5.2 12.2 0.00 0.00 0.00 60 1008.3
20260509193543 85 142 5.2 10.4 0.00 0.00 0.00 59 1008.3
20260509193044 85 204 4.3 12.2 0.00 0.00 0.00 60 1008.4
20260509192544 84 173 7.0 12.2 0.00 0.00 0.00 62 1008.4
20260509192040 84 300 3.5 10.4 0.00 0.00 0.00 62 1008.4
20260509191542 83 239 7.0 10.4 0.00 0.00 0.00 64 1008.5
20260509191043 83 173 3.5 9.6 0.00 0.00 0.00 63 1008.5
20260509190539 84 235 4.3 9.6 0.00 0.00 0.00 64 1008.6
20260509190040 84 245 7.0 11.3 0.00 0.00 0.00 65 1008.7
20260509185537 83 246 7.8 11.3 0.00 0.00 0.00 67 1008.8
20260509185037 83 200 0.9 10.4 0.00 0.00 0.00 67 1008.8
20260509184549 83 227 5.2 11.3 0.00 0.00 0.00 66 1008.9
20260509184036 83 215 4.3 13.9 0.00 0.00 0.00 67 1009.0
20260509183536 83 221 7.0 13.9 0.00 0.00 0.00 68 1009.1
20260509183035 83 189 4.3 8.7 0.00 0.00 0.00 69 1009.1
20260509182535 83 200 2.6 9.6 0.00 0.00 0.00 70 1009.2
20260509182034 83 211 6.1 9.6 0.00 0.00 0.00 69 1009.3
20260509181544 83 231 6.1 11.3 0.00 0.00 0.00 69 1009.4
20260509181033 83 221 9.6 12.2 0.00 0.00 0.00 69 1009.5
20260509180533 83 184 4.3 9.6 0.00 0.00 0.00 68 1009.5
20260509180032 82 172 4.3 9.6 0.00 0.00 0.00 73 1009.6
20260509175534 82 223 5.2 11.3 0.00 0.00 0.00 71 1009.7
20260509175029 82 148 1.7 12.2 0.00 0.00 0.00 71 1009.7
20260509174528 81 201 5.2 10.4 0.00 0.00 0.00 74 1009.7
20260509174026 81 191 5.2 10.4 0.00 0.00 0.00 75 1009.8
20260509173525 80 214 2.6 9.6 0.00 0.00 0.00 76 1009.8
20260509173023 79 182 3.5 9.6 0.00 0.00 0.00 77 1009.8
20260509172523 79 213 6.1 10.4 0.00 0.00 0.00 78 1009.9
20260509172023 79 236 7.8 12.2 0.00 0.00 0.00 77 1009.9
20260509171521 79 265 5.2 12.2 0.00 0.00 0.00 79 1009.9
20260509171020 78 211 5.2 12.2 0.00 0.00 0.00 79 1010.0
20260509170519 78 222 4.3 9.6 0.00 0.00 0.00 81 1009.9
20260509170019 78 229 4.3 13.0 0.00 0.00 0.00 83 1009.9
20260509165519 78 229 7.8 13.0 0.00 0.00 0.00 81 1009.8
20260509165020 78 182 7.0 14.8 0.00 0.00 0.00 82 1009.8
20260509164529 78 226 7.0 13.9 0.00 0.00 0.00 83 1009.8
20260509164018 77 184 7.8 13.0 0.00 0.00 0.00 84 1009.7
20260509163513 77 221 6.1 12.2 0.00 0.00 0.00 84 1009.9
20260509163016 77 199 7.0 12.2 0.00 0.00 0.00 88 1009.9
20260509162511 75 205 7.8 10.4 0.00 0.00 0.00 90 1010.0
20260509162015 75 200 5.2 8.7 0.00 0.00 0.00 90 1010.0
20260509161509 75 225 5.2 9.6 0.00 0.00 0.00 90 1010.0
20260509161008 74 209 5.2 11.3 0.00 0.00 0.00 93 1009.9
20260509160506 73 222 7.0 11.3 0.00 0.00 0.00 94 1009.9
20260509160006 72 214 5.2 8.7 0.00 0.00 0.00 96 1010.0
20260509155505 72 240 5.2 8.7 0.00 0.00 0.00 97 1010.1
20260509155004 73 192 4.3 9.6 0.00 0.00 0.00 99 1010.1
20260509154506 73 163 4.3 9.6 0.00 0.00 0.00 100 1010.1
20260509154003 72 197 3.5 7.0 0.00 0.00 0.00 100 1010.1
20260509153502 72 178 3.5 6.1 0.00 0.00 0.00 100 1010.1
20260509153106 71 220 3.5 7.0 0.00 0.00 0.00 100 1010.1
20260509152602 71 195 4.3 8.7 0.00 0.00 0.00 100 1010.2
20260509152058 70 188 4.3 7.8 0.00 0.00 0.00 100 1010.2
20260509151557 70 182 3.5 8.7 0.00 0.00 0.00 100 1010.2
20260509151055 70 194 5.2 8.7 0.00 0.00 0.00 100 1010.2
20260509150556 69 191 2.6 5.2 0.00 0.00 0.00 100 1010.2
20260509150055 69 232 0.9 1.7 0.00 0.00 0.00 100 1010.3
20260509145555 69 165 0.0 3.5 0.00 0.00 0.00 100 1010.2
20260509145056 69 245 1.7 3.5 0.00 0.00 0.00 100 1010.2
20260509144559 69 190 1.7 2.6 0.00 0.00 0.00 100 1010.2
20260509144053 69 92 0.9 1.7 0.00 0.00 0.00 100 1010.2
20260509143553 69 46 0.0 2.6 0.00 0.00 0.00 100 1010.3
20260509143055 69 18 0.9 3.5 0.00 0.00 0.00 100 1010.3
20260509142551 69 350 0.9 4.3 0.00 0.00 0.00 100 1010.3
20260509142051 68 9 2.6 4.3 0.00 0.00 0.00 100 1010.5
20260509141551 68 17 1.7 2.6 0.00 0.00 0.00 100 1010.5
20260509141054 68 73 0.9 4.3 0.00 0.00 0.00 100 1010.4
20260509140550 68 73 0.9 4.3 0.00 0.00 0.00 100 1010.2
20260509135550 68 76 0.9 4.3 0.00 0.01 0.00 100 1010.1
20260509135050 68 53 1.7 7.0 0.00 0.01 0.00 100 1010.1
20260509134549 68 74 4.3 7.0 0.00 0.01 0.00 100 1010.3
20260509134049 68 49 1.7 3.5 0.00 0.01 0.00 100 1010.2
20260509133547 68 95 0.9 5.2 0.00 0.01 0.00 100 1010.1
20260509133047 68 74 0.9 6.1 0.00 0.01 0.00 100 1010.2
20260509132547 68 65 3.5 7.8 0.00 0.01 0.00 100 1010.2
20260509132045 68 51 4.3 7.8 0.00 0.01 0.00 100 1010.3
20260509131546 68 55 3.5 6.1 0.00 0.01 0.00 100 1010.2
20260509131045 68 54 3.5 6.1 0.00 0.01 0.00 100 1010.1
20260509130545 68 59 2.6 4.3 0.00 0.01 0.00 100 1010.2
20260509130045 68 72 1.7 7.0 0.00 0.01 0.00 100 1010.4
20260509125544 68 80 3.5 6.1 0.00 0.01 0.00 100 1010.3
20260509125044 68 81 3.5 7.8 0.00 0.01 0.00 100 1010.2
20260509124541 67 59 3.5 10.4 0.00 0.01 0.00 100 1010.1
20260509124039 67 64 5.2 11.3 0.00 0.01 0.00 100 1010.1
20260509123541 67 46 7.8 10.4 0.00 0.01 0.00 100 1010.2
20260509123038 67 60 7.0 10.4 0.00 0.01 0.00 100 1010.2
20260509122538 67 48 7.0 9.6 0.00 0.01 0.00 100 1010.2
20260509122037 67 41 7.0 10.4 0.00 0.01 0.00 100 1010.3
20260509121540 67 57 6.1 10.4 0.00 0.01 0.00 100 1010.1
20260509121036 67 60 4.3 12.2 0.00 0.01 0.00 100 1010.1
20260509120536 68 33 8.7 12.2 0.00 0.01 0.00 100 1010.1
20260509120136 68 56 7.0 10.4 0.00 0.01 0.00 100 1010.1
20260509115535 68 43 7.0 9.6 0.00 0.01 0.00 100 1010.1
20260509115034 68 44 4.3 11.3 0.00 0.01 0.00 100 1010.1
20260509114534 68 30 7.8 11.3 0.00 0.01 0.00 100 1010.0
20260509114032 68 52 7.0 9.6 0.00 0.01 0.00 100 1009.9
20260509113531 68 24 5.2 7.8 0.00 0.01 0.00 100 1009.9
20260509113031 68 38 4.3 7.8 0.00 0.01 0.00 100 1009.6
20260509112530 68 32 3.5 5.2 0.00 0.01 0.00 100 1009.4
20260509112031 68 65 2.6 4.3 0.00 0.01 0.00 100 1009.3
20260509111531 67 85 2.6 5.2 0.00 0.01 0.00 100 1009.2
20260509111030 68 78 3.5 6.1 0.00 0.01 0.00 100 1009.2
20260509110531 68 75 4.3 7.8 0.00 0.01 0.00 100 1009.1
20260509110030 68 82 5.2 7.8 0.00 0.01 0.00 100 1009.0
20260509105531 68 67 3.5 5.2 0.00 0.01 0.00 100 1008.9
20260509105030 68 76 3.5 6.1 0.00 0.01 0.00 100 1008.9
20260509104533 68 73 3.5 6.1 0.00 0.01 0.00 100 1008.9
20260509104028 68 90 1.7 3.5 0.00 0.01 0.00 100 1008.9
20260509103528 68 102 1.7 5.2 0.00 0.01 0.00 100 1008.9
20260509103029 67 119 2.6 6.1 0.00 0.01 0.00 100 1008.9
20260509102528 67 116 1.7 5.2 0.00 0.01 0.00 100 1008.9
20260509102028 67 113 1.7 5.2 0.00 0.01 0.00 100 1008.9
20260509101537 67 105 1.7 4.3 0.00 0.01 0.00 100 1008.9
20260509101031 67 100 3.5 5.2 0.00 0.01 0.00 100 1008.7
20260509100527 67 82 2.6 7.0 0.00 0.01 0.00 100 1008.8
20260509100027 67 82 3.5 6.1 0.00 0.01 0.00 99 1008.6
20260509095528 67 64 4.3 6.1 0.00 0.01 0.00 99 1008.5